Location: Unspecified
(0.0000°N, 0.0000°E)
Time: 20:45:58
(UTC+00:00)

Meteor 2-7 - Visible Passes

Search period start: 24 June 2018 00:00
Search period end: 04 July 2018 00:00
Orbit: 823 x 893 km, 81.3° (Epoch: 24 June)

Date Brightness Start Highest point End Pass type
(mag) Time Alt. Az. Time Alt. Az. Time Alt. Az.
26 Jun 7.5 20:06:50 10° NNE 20:07:01 11° NNE 20:07:01 11° NNE visible
27 Jun 7.3 19:57:10 10° NNE 19:57:52 13° NE 19:57:52 13° NE visible
28 Jun 7.1 19:47:30 10° NNE 19:48:45 15° NE 19:48:45 15° NE visible
28 Jun 8.0 21:30:27 10° NW 21:30:58 12° NW 21:30:58 12° NW visible
29 Jun 6.9 19:37:50 10° NE 19:39:42 17° NE 19:39:42 17° NE visible
29 Jun 7.8 21:20:33 10° NW 21:21:54 15° NW 21:21:54 15° NW visible
30 Jun 6.7 19:28:11 10° NE 19:30:41 19° ENE 19:30:41 19° ENE visible
30 Jun 7.5 21:10:41 10° NW 21:12:54 19° WNW 21:12:54 19° WNW visible
01 Jul 6.6 19:18:33 10° NE 19:21:44 20° ENE 19:21:44 20° ENE visible
01 Jul 7.2 21:00:48 10° NW 21:03:57 23° WNW 21:03:57 23° WNW visible
02 Jul 6.5 19:08:55 10° NE 19:12:50 19° E 19:12:50 19° E visible
02 Jul 7.0 20:50:56 10° NW 20:55:03 27° W 20:55:03 27° W visible
03 Jul 6.5 18:59:18 10° NE 19:03:05 19° E 19:04:00 18° E visible
03 Jul 6.8 20:41:04 10° NW 20:45:51 29° W 20:46:13 28° WSW visible
